| time (UTC) | temp C | wind direction | speed KPH | gust KPH | rain 1hr cm | rain 24hr cm | rain mn cm | humidity % | barometer mb |
| 20260505021528 | 13 | 179 | 3.2 | 0.0 | 0.00 | 0.00 | 0.15 | 82 | 1005.3 |
| 20260505020026 | 13 | 84 | 6.4 | 0.0 | 0.00 | 0.00 | 0.10 | 81 | 1005.6 |
| 20260505014524 | 13 | 34 | 8.0 | 0.0 | 0.00 | 0.00 | 0.08 | 79 | 1006.3 |
| 20260505013025 | 13 | 46 | 3.2 | 0.0 | 0.00 | 0.00 | 0.03 | 74 | 1005.9 |
| 20260505011529 | 14 | 44 | 12.9 | 0.0 | 0.00 | 0.00 | 0.00 | 67 | 1006.1 |
| 20260505010020 | 21 | 319 | 9.7 | 0.0 | 0.00 | 0.00 | 0.00 | 38 | 1005.4 |
| 20260505004532 | 23 | 280 | 9.7 | 0.0 | 0.00 | 0.00 | 0.00 | 39 | 1004.7 |
| 20260505003106 | 23 | 290 | 11.3 | 0.0 | 0.00 | 0.00 | 0.00 | 36 | 1004.7 |
| 20260505001632 | 23 | 288 | 11.3 | 0.0 | 0.00 | 0.00 | 0.00 | 33 | 1004.8 |
| 20260505000051 | 22 | 301 | 11.3 | 0.0 | 0.00 | 0.00 | 0.00 | 33 | 1004.9 |
| 20260504234558 | 23 | 292 | 8.0 | 0.0 | 0.00 | 0.00 | 0.00 | 35 | 1004.9 |
| 20260504233023 | 22 | 306 | 11.3 | 0.0 | 0.00 | 0.00 | 0.00 | 37 | 1004.9 |
| 20260504231524 | 22 | 306 | 9.7 | 0.0 | 0.00 | 0.00 | 0.00 | 38 | 1005.1 |
| 20260504230002 | 22 | 283 | 8.0 | 0.0 | 0.00 | 0.00 | 0.00 | 34 | 1005.2 |
| 20260504224501 | 22 | 280 | 11.3 | 0.0 | 0.00 | 0.00 | 0.00 | 31 | 1005.3 |
| 20260504223048 | 23 | 278 | 6.4 | 0.0 | 0.00 | 0.00 | 0.00 | 30 | 1005.4 |
| 20260504221547 | 23 | 278 | 9.7 | 0.0 | 0.00 | 0.00 | 0.00 | 30 | 1005.6 |
| 20260504220044 | 23 | 279 | 8.0 | 0.0 | 0.00 | 0.00 | 0.00 | 33 | 1005.6 |
| 20260504214543 | 23 | 279 | 8.0 | 0.0 | 0.00 | 0.00 | 0.00 | 34 | 1005.9 |
| 20260504213059 | 23 | 283 | 8.0 | 0.0 | 0.00 | 0.00 | 0.00 | 35 | 1005.9 |
| 20260504211540 | 23 | 290 | 6.4 | 0.0 | 0.00 | 0.00 | 0.00 | 35 | 1006.0 |
| 20260504210037 | 22 | 284 | 6.4 | 0.0 | 0.00 | 0.00 | 0.00 | 36 | 1006.2 |
| 20260504204537 | 22 | 307 | 9.7 | 0.0 | 0.00 | 0.00 | 0.00 | 37 | 1006.2 |
| 20260504203017 | 22 | 284 | 3.2 | 0.0 | 0.00 | 0.00 | 0.00 | 40 | 1006.4 |
| 20260504201522 | 22 | 296 | 4.8 | 0.0 | 0.00 | 0.00 | 0.00 | 40 | 1006.5 |
| 20260504200057 | 22 | 279 | 8.0 | 0.0 | 0.00 | 0.00 | 0.00 | 35 | 1006.5 |
| 20260504194604 | 22 | 300 | 8.0 | 0.0 | 0.00 | 0.00 | 0.00 | 39 | 1006.5 |
| 20260504193048 | 21 | 300 | 6.4 | 0.0 | 0.00 | 0.00 | 0.00 | 39 | 1006.6 |
| 20260504191535 | 21 | 294 | 3.2 | 0.0 | 0.00 | 0.00 | 0.00 | 37 | 1006.6 |
| 20260504190016 | 21 | 288 | 4.8 | 0.0 | 0.00 | 0.00 | 0.00 | 37 | 1006.8 |
| 20260504184515 | 21 | 295 | 3.2 | 0.0 | 0.00 | 0.00 | 0.00 | 37 | 1007.0 |
| 20260504183054 | 21 | 284 | 3.2 | 0.0 | 0.00 | 0.00 | 0.00 | 38 | 1007.0 |
| 20260504181552 | 20 | 281 | 4.8 | 0.0 | 0.00 | 0.00 | 0.00 | 36 | 1007.2 |
| 20260504180033 | 20 | 246 | 1.6 | 0.0 | 0.00 | 0.00 | 0.00 | 35 | 1007.3 |
| 20260504174532 | 20 | 240 | 1.6 | 0.0 | 0.00 | 0.00 | 0.00 | 38 | 1007.3 |
| 20260504173023 | 19 | 209 | 3.2 | 0.0 | 0.00 | 0.00 | 0.00 | 40 | 1007.4 |
| 20260504171517 | 19 | 250 | 1.6 | 0.0 | 0.00 | 0.00 | 0.00 | 41 | 1007.5 |
| 20260504081504 | 5 | 280 | 0.0 | 0.0 | 0.00 | 0.00 | 0.00 | 82 | 1008.4 |
| 20260504070118 | 7 | 280 | 0.0 | 0.0 | 0.00 | 0.00 | 0.00 | 79 | 1008.4 |
| 20260504044536 | 11 | 280 | 0.0 | 0.0 | 0.00 | 0.00 | 0.00 | 66 | 1008.5 |
| 20260504043023 | 11 | 280 | 0.0 | 0.0 | 0.00 | 0.00 | 0.00 | 63 | 1008.6 |
| 20260504041559 | 12 | 280 | 0.0 | 0.0 | 0.00 | 0.00 | 0.00 | 59 | 1008.4 |
| 20260504040103 | 13 | 280 | 0.0 | 0.0 | 0.00 | 0.00 | 0.00 | 56 | 1008.4 |
| 20260504034545 | 14 | 280 | 0.0 | 0.0 | 0.00 | 0.00 | 0.00 | 54 | 1008.3 |
| 20260504033049 | 15 | 280 | 0.0 | 0.0 | 0.00 | 0.00 | 0.00 | 48 | 1008.2 |
| 20260504031519 | 17 | 280 | 0.0 | 0.0 | 0.00 | 0.00 | 0.00 | 46 | 1008.1 |
| 20260504030019 | 18 | 280 | 0.0 | 0.0 | 0.00 | 0.00 | 0.00 | 37 | 1008.0 |
| 20260504024501 | 19 | 280 | 0.0 | 0.0 | 0.00 | 0.00 | 0.00 | 36 | 1007.9 |
| 20260504023101 | 20 | 280 | 1.6 | 0.0 | 0.00 | 0.00 | 0.00 | 34 | 1007.9 |